Content
SEND FEEDBACK

Daily
Averages
Monthly
Summary
Greece

ANDRAVIDHA, GREECE


Home > Europe > Greece
Elevation: 50 feet     Latitude: 37 55N     Longitude: 021 17E

WEATHER
 
SELECT A DAY
Number of Records: 91,820;   Date Range: 7/11/96 - 9/30/14
 
SHARE

PRINT THIS DATA

[ ← Previous Day ]
WEATHER ALMANAC - FEBRUARY 13, 2013
[ Next Day → ]
[ °C ]   °F
Weather ElementAverageHighLow
Temperature53.1 °F59 °F (11:50 am)44.6 °F (4:20 am)
Dewpoint43.3 °F46.4 °F (5:50 am)41 °F (1:50 am)
Humidity69.6 %93 % (5:50 am)48 % (2:00 pm)
Barometer29.86 in29.90 in (8:00 pm)29.80 in (3:20 am)
Wind Speed8.1 mph18.4 mph (3:20 am)
Wind Gust29.9 mph (6:20 am)
Weather ElementAverage
Visibility5.9 mi
Wind DirectionSE (132 °)

Weather ElementTotal
Precipitation---
Heating Degree Days13.2 (Base 65)
Growing Degree Days1.8 (Base 50)
Averaged from 51 records on February 13, 2013
WEATHER CONDITIONS BREAKOUT
WIND DIRECTION BREAKOUT
WEATHER BY HOUR - FEBRUARY 13, 2013
[ °C ]   °F
Local TimeTemperatureDewpointHumidityBarometerVisibilityWind DirectionWind SpeedGust SpeedPrecipitationEventsConditions
12:50 AM51.8 °F44.6 °F76 %29.89 in6.2 miSSE (150°)10.4 mphMostly Cloudy
1:20 AM51.8 °F42.8 °F71 %29.86 in6.2 miSE (140°)13.8 mphMostly Cloudy
1:50 AM53.6 °F41.0 °F62 %29.86 in6.2 miSE (140°)16.1 mphOvercast
2:00 AM53.0 °F42.0 °F56 %29.86 in6.0 miSE (140°)16.1 mphPartly Cloudy
2:20 AM53.6 °F41.0 °F62 %29.83 in6.2 miSE (140°)16.1 mphOvercast
2:50 AM53.6 °F41.0 °F62 %29.83 in6.2 miSE (130°)15.0 mphThunderstormThunderstorm
3:20 AM55.4 °F41.0 °F58 %29.80 in6.2 miSE (140°)18.4 mphThunderstormThunderstorm
3:50 AM55.4 °F41.0 °F58 %29.80 in5.0 miSE (140°)15.0 mphRain-ThunderstormLight Thunderstorms and Rain
4:20 AM44.6 °F41.0 °F87 %29.86 in1.9 miSouth (170°)10.4 mphRain-ThunderstormHeavy Thunderstorms and Rain
4:50 AM44.6 °F41.0 °F87 %29.86 in1.9 miESE (120°)10.4 mphRain-ThunderstormThunderstorms and Rain
5:20 AM46.4 °F42.8 °F87 %29.86 in3.1 miSE (140°)4.6 mphRain-ThunderstormLight Thunderstorms and Rain
5:50 AM48.2 °F46.4 °F93 %29.83 in5.0 miSSE (160°)11.5 mphRainLight Rain
6:20 AM51.8 °F44.6 °F76 %29.83 in6.2 miSouth (180°)16.1 mph29.9 mphMostly Cloudy
6:50 AM53.6 °F44.6 °F72 %29.80 in6.2 miSouth (180°)16.1 mphMostly Cloudy
7:20 AM51.8 °F44.6 °F76 %29.80 in6.2 miSouth (170°)12.7 mphMostly Cloudy
7:50 AM51.8 °F44.6 °F76 %29.83 in6.2 miSouth (170°)10.4 mphMostly Cloudy
8:00 AM52.0 °F44.0 °F65 %29.84 in6.0 miSouth (170°)10.4 mph
8:20 AM51.8 °F42.8 °F71 %29.83 in6.2 miSouth (180°)9.2 mphMostly Cloudy
8:50 AM53.6 °F42.8 °F67 %29.83 in6.2 miSouth (170°)9.2 mphMostly Cloudy
9:20 AM55.4 °F44.6 °F67 %29.83 in6.2 miSouth (180°)11.5 mphMostly Cloudy
9:50 AM57.2 °F42.8 °F59 %29.86 in6.2 miSouth (190°)8.1 mphMostly Cloudy
10:20 AM53.6 °F42.8 °F67 %29.86 in6.2 miSouth (190°)9.2 mphMostly Cloudy
10:50 AM53.6 °F44.6 °F72 %29.86 in6.2 miSouth (170°)5.8 mphMostly Cloudy
11:20 AM55.4 °F44.6 °F67 %29.86 in6.2 miCalmMostly Cloudy
11:50 AM59.0 °F44.6 °F59 %29.86 in6.2 miSW (220°)9.2 mphScattered Clouds
12:20 PM59.0 °F42.8 °F55 %29.86 in6.2 miSSW (210°)11.5 mphScattered Clouds
12:50 PM59.0 °F42.8 °F55 %29.86 in6.2 miSSW (210°)8.1 mphScattered Clouds
1:20 PM57.2 °F42.8 °F59 %29.86 in6.2 miSSW (210°)8.1 mphScattered Clouds
1:50 PM57.2 °F42.8 °F59 %29.86 in6.2 miSW (220°)6.9 mphScattered Clouds
2:00 PM58.0 °F44.0 °F48 %29.87 in6.0 miSW (220°)6.9 mph
2:20 PM59.0 °F42.8 °F55 %29.86 in6.2 miSouth (190°)10.4 mphScattered Clouds
2:50 PM59.0 °F44.6 °F59 %29.86 in6.2 miSSW (200°)9.2 mphScattered Clouds
3:20 PM59.0 °F42.8 °F55 %29.86 in6.2 miSSW (210°)6.9 mphScattered Clouds
3:50 PM57.2 °F42.8 °F59 %29.86 in6.2 miSouth (190°)10.4 mphScattered Clouds
4:20 PM57.2 °F42.8 °F59 %29.86 in6.2 miSouth (190°)10.4 mphScattered Clouds
4:50 PM57.2 °F42.8 °F59 %29.86 in6.2 miSouth (190°)8.1 mphMostly Cloudy
5:20 PM55.4 °F42.8 °F63 %29.86 in5.0 miSouth (170°)9.2 mphRainLight Rain
5:50 PM51.8 °F44.6 °F76 %29.86 in6.2 miCalmMostly Cloudy
6:20 PM51.8 °F44.6 °F76 %29.86 in6.2 miCalmMostly Cloudy
6:50 PM51.8 °F44.6 °F76 %29.86 in6.2 miCalmRainLight Rain
7:20 PM51.8 °F44.6 °F76 %29.89 in6.2 miCalmScattered Clouds
7:50 PM51.8 °F44.6 °F76 %29.89 in6.2 miCalmScattered Clouds
8:00 PM51.0 °F45.0 °F72 %29.90 in6.0 miCalm
8:20 PM48.2 °F44.6 °F87 %29.89 in6.2 miCalmScattered Clouds
8:50 PM48.2 °F42.8 °F82 %29.89 in6.2 miCalmScattered Clouds
9:20 PM48.2 °F42.8 °F82 %29.89 in6.2 miCalmScattered Clouds
9:50 PM48.2 °F42.8 °F82 %29.89 in6.2 miCalmScattered Clouds
10:20 PM48.2 °F42.8 °F82 %29.89 in6.2 miCalmScattered Clouds
10:50 PM50.0 °F44.6 °F82 %29.89 in6.2 miEast (100°)6.9 mphMostly Cloudy
11:20 PM50.0 °F44.6 °F82 %29.89 in6.2 miEast (100°)6.9 mphMostly Cloudy
11:50 PM48.2 °F42.8 °F82 %29.89 in6.2 miESE (110°)6.9 mphScattered Clouds
Hourly data recorded from LGAD, located miles away from Andravidha, Greece







STORIES FROM OUR PARTNERS